Hourly Data Report for October 04, 2016

All times are specified in Local Standard Time (LST). Add 1 hour to adjust for Daylight Saving Time where and when it is observed.

RESOLUTE BAY A
NUNAVUT

74°43'01.000" N
94°58'10.000" W
67.70 m
2403498
71924
YRB

Download Data

Hourly Data (October 2016)
Hourly Data Report for October 4, 2016
Temp Definition
°C
Dew Point Temp Definition
°C
Rel Hum Definition
%
Wind Dir Definition
10's deg

Wind Spd Definition
km/h
Visibility Definition
km
Stn Press Definition
kPa
Hmdx Definition


Wind Chill Definition


Weather Definition


TIME
00:00 Legend Double Dagger -8.1 -10.7 82 36 18 24.1 99.61   -15 Cloudy
01:00 Legend Double Dagger -8.2 -10.6 83 34 17 24.1 99.63   -15 LegendNANA
02:00 Legend Double Dagger -8.4 -10.8 83 36 13 24.1 99.66   -14 LegendNANA
03:00 Legend Double Dagger -8.6 -10.8 84 34 17 24.1 99.68   -15 Cloudy
04:00 Legend Double Dagger -8.9 -10.8 86 36 9 24.1 99.70   -14 LegendNANA
05:00 Legend Double Dagger -9.2 -10.6 90 4 13 24.1 99.73   -15 LegendNANA
06:00 Legend Double Dagger -9.8 -10.9 92 34 15 16.1 99.76   -16 Cloudy
07:00 Legend Double Dagger -11.5 -12.7 91 1 11 4.0 99.76   -17 Fog
08:00 Legend Double Dagger -12.3 -13.9 88 5 17 24.1 99.80   -20 LegendNANA
09:00 Legend Double Dagger -11.7 -13.5 87 3 14 24.1 99.82   -19 Mostly Cloudy
10:00 Legend Double Dagger -10.6 -12.5 86 36 10 24.1 99.84   -16 LegendNANA
11:00 Legend Double Dagger -10.7 -12.5 87 3 8 24.1 99.87   -15 LegendNANA
12:00 Legend Double Dagger -10.2 -12.0 87 35 8 24.1 99.89   -15 Mostly Cloudy
13:00 Legend Double Dagger -9.9 -11.7 87 0 1 24.1 99.91   -10 LegendNANA
14:00 Legend Double Dagger -9.8 -10.9 92 13 5 1.6 99.94   -13 Fog
15:00 Legend Double Dagger -9.2 -10.4 91 13 10 12.9 99.96   -14 Cloudy
16:00 Legend Double Dagger -8.2 -9.3 92 11 9 9.7 99.97   -13 Freezing Drizzle,Fog
17:00 Legend Double Dagger -7.0 -8.4 90 29 13 16.1 100.01   -13 LegendNANA
18:00 Legend Double Dagger -6.9 -8.0 92 24 20 24.1 100.02   -14 Cloudy
19:00 Legend Double Dagger -6.9 -8.1 91 24 14 24.1 100.07   -13 LegendNANA
20:00 Legend Double Dagger -6.8 -8.2 90 20 12 24.1 100.10   -12 LegendNANA
21:00 Legend Double Dagger -6.1 -7.2 92 21 14 24.1 100.14   -12 Cloudy
22:00 Legend Double Dagger -5.8 -6.9 92 23 13 24.1 100.15   -11 LegendNANA
23:00 Legend Double Dagger -5.3 -6.3 93 22 13 24.1 100.17   -10 Snow

Notes on Data Quality.

Legend

  • E = Estimated
  • M = Missing
  • NA = Not Available
  • ‡ = Partner data that is not subject to review by the National Climate Archives
Date modified: